Hors Challenge

La Course Pour La Vie - Estaimbourg (21.00 km)

dimanche 12 mai 2019

Vous pouvez trouver Le classement original sur : http://ultratiming.be  
 
LA COURSE POUR LA VIE - ESTAIMBOURG
DISTANCE : 20.90 km
dimanche 12 mai 2019
 
Place dos NOM Catégorie Pl/cat temps temps/km Vitesse
01:00:00              
1 851 OUBOUSSAAD EL HASSAN HOMME 1 1:19:22 03:48 15.80
2 848 HERMAN JIMMY HOMME 2 1:23:23 03:59 15.04
3 869 VANWYNENDAELE BENJAMIN HOMME 3 1:26:54 04:09 14.43
4 877 CAUDRON ALEXANDRE HOMME 4 1:27:28 04:11 14.34
5 827 VAN MALLEGHEM HENRY HOMME 5 1:28:20 04:14 14.20
6 866 DUPONT LOÏC HOMME 6 1:29:25 04:17 14.02
7 870 LELEU SYLVAIN HOMME 7 1:30:18 04:19 13.89
8 845 HAJDU VALENTIN HOMME 8 1:31:44 04:23 13.67
9 864 DESSART ADRIEN HOMME 9 1:34:19 04:31 13.30
10 833 LEMOINE FABIAN HOMME 10 1:34:19 04:31 13.30
11 839 DEROISSART PHILIPPE HOMME 11 1:36:41 04:38 12.97
12 854 SOLDAI PATRICK HOMME 12 1:36:49 04:38 12.95
13 850 DUPRET DIDIER HOMME 13 1:37:07 04:39 12.91
14 885 DE ABREU KENNY HOMME 14 1:38:39 04:43 12.71
15 862 DERCK STÉPHANIE DAME 1 1:38:51 04:44 12.69
16 831 PROVOST SÉBASTIEN HOMME 15 1:39:19 04:45 12.63
17 837 TROVATO GIUSEPPE HOMME 16 1:39:44 04:46 12.57
18 873 VASSEUR YANNICK HOMME 17 1:40:02 04:47 12.54
19 880 GALLIEZ DAVID HOMME 18 1:40:14 04:48 12.51
20 865 VERMEULEN RENAUD HOMME 19 1:40:32 04:49 12.47
21 857 CLAEYS GRÉGORY HOMME 20 1:41:31 04:51 12.35
22 807 PLACET JULIEN HOMME 21 1:42:10 04:53 12.27
23 894 VANDENBROUCKE CELINE DAME 2 1:42:20 04:54 12.25
24 815 DERYCKE SIMON HOMME 22 1:42:29 04:54 12.24
25 830 VANHOUTTE GEOFFREY HOMME 23 1:42:34 04:54 12.23
26 814 NARBOND GRÉGORY HOMME 24 1:43:36 04:57 12.10
27 886 NICOLAS MARC HOMME 25 1:43:37 04:57 12.10
28 875 LAMESCH RICHARD HOMME 26 1:43:59 04:59 12.06
29 859 DEGRENDEL SOFIE DAME 3 1:46:03 05:04 11.82
30 843 DECERF SÉBASTIEN HOMME 27 1:47:17 05:08 11.69
31 840 CATOIRE CÉDRIC HOMME 28 1:47:24 05:08 11.68
32 874 BAUWENS MAXIME HOMME 29 1:48:22 05:11 11.57
33 816 VERGAUWE SIEN HOMME 30 1:48:45 05:12 11.53
34 878 PREVOST MARIE CÉCILE DAME 4 1:48:45 05:12 11.53
35 884 DORCHY QUENTIN HOMME 31 1:48:52 05:13 11.52
36 876 BRAYE LAURENT HOMME 32 1:48:53 05:13 11.52
37 867 CARETTE ALAIN HOMME 33 1:49:22 05:14 11.47
38 812 JONVILLE ARMAND HOMME 34 1:49:27 05:14 11.46
39 882 TACK BERNARD HOMME 35 1:49:56 05:16 11.41
40 881 LESSINES JAMES HOMME 36 1:50:17 05:17 11.37
41 809 BOUCAUT NICOLAS HOMME 37 1:50:22 05:17 11.36
42 810 VIERSTRAETE MIKE HOMME 38 1:50:23 05:17 11.36
43 883 BOURGI PATRICK HOMME 39 1:51:22 05:20 11.26
44 838 PARMENTIER XAVIER HOMME 40 1:52:35 05:23 11.14
45 819 BACKELJAU GRÉGORY HOMME 41 1:53:16 05:25 11.07
46 861 BERISHA IBRAHIM HOMME 42 1:53:26 05:26 11.05
47 856 MASSCHELEIN FANNY DAME 5 1:53:31 05:26 11.05
48 855 MAGNIER SOPHIE DAME 6 1:53:42 05:26 11.03
49 817 PILLYSER THIBAUT HOMME 43 1:53:56 05:27 11.01
50 802 MINNAERT MAXIME HOMME 44 1:54:00 05:27 11.00
51 871 VAN HEE OLIVIER HOMME 45 1:57:22 05:37 10.68
52 820 NOLF YANNICK HOMME 46 1:57:42 05:38 10.65
53 828 DENIS JOËL HOMME 47 1:58:37 05:41 10.57
54 853 LEMAIRE EDDY HOMME 48 1:58:48 05:41 10.56
55 860 DEMARQUE JULIEN HOMME 49 1:58:48 05:41 10.56
56 804 NOTTEBAERT FLORIE DAME 7 1:59:15 05:42 10.52
57 835 DELEPLANQUE ERIC HOMME 50 1:59:40 05:44 10.48
58 858 BOUCART SANDRINE DAME 8 2:00:49 05:47 10.38
59 823 VAN CAUWENBERGHE SOPHIE DAME 9 2:00:54 05:47 10.37
60 818 BOURG DAVID HOMME 51 2:01:17 05:48 10.34
61 834 DORIGNAUX VÉRONIQUE DAME 10 2:01:33 05:49 10.32
62 872 CAMBIER DAVID HOMME 52 2:01:34 05:49 10.32
63 825 BACHELET JEAN-PIERRE HOMME 53 2:01:36 05:49 10.31
64 836 QUÉVY DIDIER HOMME 54 2:01:36 05:49 10.31
65 826 TIRLEMONT BRUNO HOMME 55 2:01:36 05:49 10.31
66 829 DIETRICH PIERRE-FRANÇOIS HOMME 56 2:02:00 05:50 10.28
67 868 LONGEPEE PHILIPPE HOMME 57 2:02:23 05:51 10.25
68 842 ADAMS FABIENNE DAME 11 2:05:04 05:59 10.03
69 822 GRAS MARYLENE DAME 12 2:09:31 06:12 9.68
70 841 PRANGÈRE ELODIE DAME 13 2:09:56 06:13 9.65
71 879 SCOLAS BENEDICTE DAME 14 2:10:27 06:14 9.61
72 801 DUFNERR STEPHANIE DAME 15 2:16:39 06:32 9.18
73 863 VANDEWEGHE JEREMY HOMME 58 2:18:37 06:38 9.05
74 821 CLOOSEN LOIC HOMME 59 2:18:54 06:39 9.03
75 813 JOYE PIERRE HOMME 60 2:21:38 06:47 8.85
76 844 KANE ANTHONY HOMME 61 2:23:27 06:52 8.74
77 805 WONNER STÉPHANIE DAME 16 2:23:54 06:53 8.71
78 806 DESUTTER NICOLAS HOMME 62 2:23:55 06:53 8.71
79 808 ROGGE EVA DAME 17 2:43:06 07:48 7.69